Lexington Weather

Lexington, Massachusetts, USA

44°F
4/22/2024 8:56am 
  • Lexington Conditions: Clear
  • Temperature: 43.5°F / 6.4°CWarmer 3.4°F than last hour.
  • Dew Point: 27.1°FDecreased 1.5°Fsince last hour.
  • Relative Humidity: 52%Decreased 11.0% since last hour.
  • Wind: Calm, 10-min avg: Calm, gust: None
  • Barometer: 29.96 in Steady
  • Visibility: 10 miles
  • Rain Today: 0.00 in
  •   

Regional Weather Roundup
for Boston, MA

        
000
ASUS41 KBOX 220110
RWRBOX

REGIONAL WEATHER ROUNDUP
NATIONAL WEATHER SERVICE BOSTON/NORTON MA
900 PM EDT SUN APR 21 2024

NOTE:  "FAIR" INDICATES FEW OR NO CLOUDS BELOW 12,000 FEET WITH NO 
SIGNIFICANT WEATHER AND/OR OBSTRUCTIONS TO VISIBILITY.

MAZALL-220200-
EASTERN MASSACHUSETTS
  
CITY           SKY/WX    TMP DP  RH WIND       PRES   REMARKS
BOSTON         MOCLDY    48  24  39 W13       29.89R                  
BEVERLY        MOCLDY    45  24  43 W8        29.88R                  
LAWRENCE       PTCLDY    46  23  40 W7        29.90R                  
BEDFORD        MOCLDY    43  24  47 VRB3      29.88R                  
NORWOOD        MOCLDY    48  25  40 W6        29.90R                  
MARSHFIELD     MOCLDY    45  27  49 CALM      29.89R                  
PLYMOUTH       MOCLDY    45  26  47 W5        29.88S                  
TAUNTON        MOCLDY    45  27  49 CALM      29.90R                  
NEW BEDFORD    CLOUDY    46  27  47 W3        29.90R                  
$$

MAZALL-220200-
CAPE COD AND THE ISLANDS
  
CITY           SKY/WX    TMP DP  RH WIND       PRES   REMARKS
FALMOUTH       CLEAR     45  34  65 NW6       29.89                   
HYANNIS        CLOUDY    44  35  70 SW7       29.88R                  
CHATHAM        CLOUDY    45  36  70 VRB3      29.89R                  
PROVINCETOWN   CLOUDY    46  37  71 NW9       29.89R                  
NANTUCKET      CLOUDY    45  37  73 W12       29.90R                  
MARTHAS VNYRD  CLOUDY    45  37  73 SW5       29.90R                  
$$
 
MAZALL-220200-
CENTRAL AND WESTERN MASSACHUSETTS
  
CITY           SKY/WX    TMP DP  RH WIND       PRES   REMARKS
WORCESTER      MOCLDY    43  21  41 W12G21    29.88R                  
FITCHBURG      PTCLDY    44  23  43 NW7       29.90R                  
ORANGE         PTCLDY    44  23  43 NW7       29.91R                  
SPRINGFIELD    MOCLDY    44  23  44 NW12      29.89R                  
WESTFIELD      PTCLDY    45  24  43 NW7       29.92R                  
NORTH ADAMS    PTCLDY    43  25  49 W13       29.91R                  
PITTSFIELD     MOCLDY    40  25  55 W7G20     29.90R                  
$$
 
RIZALL-220200-
RHODE ISLAND
  
CITY           SKY/WX    TMP DP  RH WIND       PRES   REMARKS
PROVIDENCE     MOCLDY    46  24  42 W6        29.91R                  
NEWPORT        CLOUDY    45  28  51 NW5       29.90R                  
BLOCK ISLAND   CLOUDY    45  30  55 NW6       29.93R                  
SMITHFIELD     MOCLDY    44  23  43 W3        29.90R                  
WESTERLY       CLOUDY    46  26  45 CALM      29.92R                  
$$
 
CTZALL-220200-
CONNECTICUT
  
CITY           SKY/WX    TMP DP  RH WIND       PRES   REMARKS
BRADLEY INTL   MOCLDY    47  24  40 NW6       29.92R                  
HARTFORD       MOCLDY    48  24  39 NW6       29.93R                  
PLAINVILLE     FAIR      45  25  45 CALM      29.93R                  
BRIDGEPORT     MOCLDY    48  25  40 W3        29.94R                  
DANBURY        MOCLDY    47  22  37 NW5       29.94R                  
GROTON         CLOUDY    46  28  49 W3        29.92R                  
NEW HAVEN      MOCLDY    50  29  44 NW6       29.93R                  
CHESTER        CLOUDY    43  27  52 CALM      29.92R                  
MERIDEN        MOCLDY    43  29  57 CALM      29.93R                  
WILLIMANTIC    MOCLDY    45  25  45 W5        29.92R                  
OXFORD         MOCLDY    44  23  43 NW3       29.93R                  
$$

MEZ002-015-021-024-NHZ003-005-008-011-012-014-VTZ005-008-220200-
NORTHERN NEW ENGLAND
  
CITY           SKY/WX    TMP DP  RH WIND       PRES   REMARKS
PORTLAND ME    MOCLDY    45  25  45 W7        29.84R                  
BANGOR ME      MOCLDY    47  27  45 NW7       29.78R                  
CONCORD NH     PTCLDY    43  23  45 W7        29.87R                  
MANCHESTER NH  MOCLDY    46  23  40 W5        29.87R                  
NASHUA NH      PTCLDY    44  24  45 CALM      29.89R                  
PORTSMOUTH NH  MOCLDY    46  23  39 W6        29.86R                  
JAFFREY NH     PTCLDY    41  24  51 CALM      29.87R                  
KEENE NH       CLEAR     41  26  55 CALM      29.90R                  
BURLINGTON VT  CLEAR     44  25  47 W10       29.86R                  
MT. WASHINGTON SNOWSHWR  16  16 100 W53         N/A  VSB 1/16WCI  -9  
$$

NYZ052-076-220200-
EASTERN NEW YORK
  
CITY           SKY/WX    TMP DP  RH WIND       PRES   REMARKS
ALBANY         PTCLDY    41  26  55 W7        29.96R                  
NEW YORK CITY  MOCLDY    50  23  34 NW10      29.95R                  
$$
 
ANZALL-220200-
MARINE OBSERVATIONS
  
STATION/POSITION TIME  TEMP    WIND        PRES    VSBY  WAVE
                       AIR SEA DIR/SP/G                  HT/PER
                 (UTC) (F)     (DEG/KT/KT) (MB)    (MI)  (FT/S)
BOSTON BUOY      0050   47     280/ 12/ 14 1011.6R         2/ 3
BUZZARDS BAY     0000   48     300/ 14/ 15 1012.7R
NANTUCKET SOUND  0050   47 48  260/ 14/ 17 1011.7R         2/ 3
MASS BAY-STELLWA 2304   48 46  290/ 14/ 16 1010.6R  1 7/8  2/ 3
ISLE OF SHOALS   0000   48     280/ 16/ 18 1009.9R
S OF BLOCK IS    0056      44                N/A           3/ 4
$$

......................KEY.........................
  SKY/WX - SKY CONDITION/PRESENT WEATHER
  TMP    - TEMPERATURE IN FAHRENHEIT
  DWPT   - DEWPOINT IN FAHRENHEIT
  RH     - RELATIVE HUMIDITY IN PERCENT
  WIND   - DIRECTION AND SPEED IN MPH
  PRES   - MEAN SEA LEVEL PRESSURE IN INCHES OF HG
  WCI    - WIND CHILL INDEX
  VSB    - VISIBILITY IN MILES
  HX     - HEAT INDEX
  TC     - TEMPERATURE IN CELSIUS
  VRB    - VARIABLE WIND DIRECTION
  N/A    - NOT AVAILABLE
  
      

Other recent Regional Weather Roundups

Mon Apr 22, 8:10am EDT

Mon Apr 22, 7:10am EDT

Mon Apr 22, 6:10am EDT

Mon Apr 22, 5:10am EDT

Mon Apr 22, 4:10am EDT

Mon Apr 22, 3:10am EDT

Mon Apr 22, 2:10am EDT

Mon Apr 22, 1:10am EDT

Mon Apr 22, 12:10am EDT

Sun Apr 21, 11:10pm EDT

Sun Apr 21, 10:10pm EDT

Sun Apr 21, 8:10pm EDT

Sun Apr 21, 7:10pm EDT

Sun Apr 21, 6:10pm EDT

Sun Apr 21, 5:10pm EDT

Sun Apr 21, 4:10pm EDT

Sun Apr 21, 3:10pm EDT

Sun Apr 21, 2:10pm EDT

Sun Apr 21, 1:10pm EDT

Sun Apr 21, 12:10pm EDT

Sun Apr 21, 11:10am EDT

Sun Apr 21, 10:10am EDT

Sun Apr 21, 9:10am EDT

Sun Apr 21, 8:10am EDT

Sun Apr 21, 7:10am EDT

Sun Apr 21, 6:10am EDT

Sun Apr 21, 5:10am EDT

Sun Apr 21, 4:10am EDT

Sun Apr 21, 3:10am EDT

Sun Apr 21, 2:10am EDT

Sun Apr 21, 1:10am EDT

Sun Apr 21, 12:10am EDT

Sat Apr 20, 11:10pm EDT

Sat Apr 20, 10:10pm EDT

Sat Apr 20, 9:10pm EDT

Sat Apr 20, 8:10pm EDT

Sat Apr 20, 7:10pm EDT

Sat Apr 20, 6:10pm EDT

Sat Apr 20, 5:10pm EDT

Sat Apr 20, 4:10pm EDT

Sat Apr 20, 3:10pm EDT

Sat Apr 20, 2:10pm EDT

Sat Apr 20, 1:10pm EDT

Sat Apr 20, 12:10pm EDT

Sat Apr 20, 11:10am EDT

Sat Apr 20, 10:10am EDT

Sat Apr 20, 9:10am EDT

Sat Apr 20, 8:10am EDT

Sat Apr 20, 7:10am EDT

Sat Apr 20, 6:10am EDT

Sat Apr 20, 5:10am EDT

Sat Apr 20, 4:10am EDT

Sat Apr 20, 3:10am EDT

Sat Apr 20, 2:10am EDT

Sat Apr 20, 1:10am EDT

Sat Apr 20, 12:10am EDT

Fri Apr 19, 11:10pm EDT

Fri Apr 19, 10:10pm EDT

Fri Apr 19, 9:10pm EDT

Fri Apr 19, 8:10pm EDT

Fri Apr 19, 7:10pm EDT

Fri Apr 19, 6:10pm EDT

Fri Apr 19, 5:10pm EDT

Fri Apr 19, 4:10pm EDT

Fri Apr 19, 3:10pm EDT

Fri Apr 19, 2:10pm EDT

Fri Apr 19, 1:10pm EDT

Fri Apr 19, 12:10pm EDT

Fri Apr 19, 11:10am EDT

Fri Apr 19, 10:10am EDT

Fri Apr 19, 9:10am EDT

Fri Apr 19, 8:10am EDT

Fri Apr 19, 7:10am EDT

Fri Apr 19, 6:10am EDT

Fri Apr 19, 5:10am EDT

Fri Apr 19, 4:10am EDT

Fri Apr 19, 3:10am EDT

Fri Apr 19, 2:10am EDT

Fri Apr 19, 1:10am EDT

Fri Apr 19, 12:10am EDT

Thu Apr 18, 11:10pm EDT

Thu Apr 18, 10:10pm EDT

Thu Apr 18, 9:10pm EDT

Thu Apr 18, 8:10pm EDT

Thu Apr 18, 7:10pm EDT

Thu Apr 18, 6:10pm EDT

Thu Apr 18, 5:10pm EDT

Thu Apr 18, 4:10pm EDT

Thu Apr 18, 3:10pm EDT

Thu Apr 18, 2:10pm EDT

Thu Apr 18, 1:10pm EDT

Thu Apr 18, 12:10pm EDT

Thu Apr 18, 11:10am EDT

Thu Apr 18, 10:10am EDT

Thu Apr 18, 9:10am EDT

Thu Apr 18, 8:10am EDT

Thu Apr 18, 7:10am EDT

Thu Apr 18, 6:10am EDT

Thu Apr 18, 5:10am EDT

Thu Apr 18, 4:10am EDT

Thu Apr 18, 3:10am EDT

Thu Apr 18, 2:10am EDT

Thu Apr 18, 1:10am EDT

Thu Apr 18, 12:10am EDT

Wed Apr 17, 11:10pm EDT

Wed Apr 17, 10:10pm EDT

Wed Apr 17, 9:10pm EDT

Wed Apr 17, 8:10pm EDT

Wed Apr 17, 7:10pm EDT

Wed Apr 17, 6:10pm EDT

Wed Apr 17, 5:10pm EDT

Wed Apr 17, 4:10pm EDT

Wed Apr 17, 3:10pm EDT

Wed Apr 17, 2:10pm EDT

Wed Apr 17, 1:10pm EDT

Wed Apr 17, 12:10pm EDT

Wed Apr 17, 11:10am EDT

Wed Apr 17, 10:10am EDT

Wed Apr 17, 9:10am EDT

Wed Apr 17, 8:10am EDT

Wed Apr 17, 7:10am EDT

Wed Apr 17, 6:10am EDT

Wed Apr 17, 5:10am EDT

Wed Apr 17, 4:10am EDT

Wed Apr 17, 3:10am EDT

Wed Apr 17, 2:10am EDT

Wed Apr 17, 1:10am EDT

Wed Apr 17, 12:10am EDT

Tue Apr 16, 11:10pm EDT

Tue Apr 16, 10:10pm EDT

Tue Apr 16, 9:10pm EDT

Tue Apr 16, 8:10pm EDT

Tue Apr 16, 7:10pm EDT

Tue Apr 16, 6:10pm EDT

Tue Apr 16, 5:10pm EDT

Tue Apr 16, 4:10pm EDT

Tue Apr 16, 3:10pm EDT

Tue Apr 16, 2:10pm EDT

Tue Apr 16, 1:10pm EDT

Tue Apr 16, 12:10pm EDT

Tue Apr 16, 11:10am EDT

Tue Apr 16, 10:10am EDT

Tue Apr 16, 9:10am EDT

Tue Apr 16, 8:10am EDT

Tue Apr 16, 7:10am EDT

Tue Apr 16, 6:10am EDT

Tue Apr 16, 5:10am EDT

Tue Apr 16, 4:10am EDT

Tue Apr 16, 3:10am EDT

Tue Apr 16, 2:10am EDT

Tue Apr 16, 1:10am EDT

Tue Apr 16, 12:10am EDT

Mon Apr 15, 11:10pm EDT

Mon Apr 15, 10:10pm EDT

Mon Apr 15, 9:10pm EDT

Mon Apr 15, 8:10pm EDT

Mon Apr 15, 7:10pm EDT

Mon Apr 15, 6:10pm EDT

Mon Apr 15, 5:10pm EDT

Mon Apr 15, 4:10pm EDT

Mon Apr 15, 3:10pm EDT

Mon Apr 15, 2:10pm EDT

Mon Apr 15, 1:10pm EDT

Mon Apr 15, 12:10pm EDT

Mon Apr 15, 11:10am EDT

Mon Apr 15, 10:10am EDT

Mon Apr 15, 9:10am EDT